Location: Sagn�
(15.2046°N, 12.7898°W)
Time: 13:57:49
(UTC+00:00)

GEOS 3 Rocket - Pass Details

Date: 08 May 2021
Orbit: 777 x 842 km, 115.0° (Epoch: 14 June)

Event Time Altitude Azimuth Distance (km) Brightness Sun altitude
Exits shadow 20:00:01 13° 137° (SE) 2,246 5.4 -12.0°
Maximum altitude 20:04:45 60° 59° (ENE) 950 3.8 -13.1°
Drops below altitude 10° 20:10:00 10° 341° (NNW) 2,453 6.7 -14.2°
Sets 20:12:21 0° 337° (NNW) 3,389 7.6 -14.8°
